Lawrenceville, IL

12:07 PM CDT on August 25, 2016 (GMT -0500)
Lawrenceville-Vincennes International

Weather History for KLWV - December, 2013

Change the Weather History Date:

Saturday, December 7, 2013

  Actual Average Record
Temperature  
Mean Temperature 13 °F 37 °F  
Max Temperature 21 °F 45 °F 62 °F (2004)
Min Temperature 4 °F 29 °F 4 °F (2013)
Degree Days  
Heating Degree Days 52 28  
Month to date heating degree days 191 186  
Since 1 July heating degree days 1215 1044  
Cooling Degree Days 0 0  
Month to date cooling degree days 0 0  
Year to date cooling degree days 1287 1387  
Moisture  
Dew Point 7 °F    
Average Humidity 72    
Maximum Humidity 87    
Minimum Humidity 57    
Precipitation  
Precipitation 0.00 in 0.12 in 1.21 in (1971)
Month to date precipitation T 0.86  
Year to date precipitation 50.58 41.35  
Sea Level Pressure  
Sea Level Pressure 30.62 in    
Wind  
Wind Speed 9 mph (North)    
Max Wind Speed 20 mph    
Max Gust Speed 24 mph    
Visibility 9 miles    
Events      
T = Trace of Precipitation, MM = Missing Value Source: NWS Daily Summary

Daily Weather History Graph

Daily Weather History Graph

Search for Another Location

Airport or City:

Trip Planner

Search our weather history database for the weather conditions in past years. The results will help you decide how hot, cold, wet, or windy it might be!

Date:

Astronomy

Dec. 07, 2013 Rise Set
Actual Time 6:55 AM CST 4:28 PM CST
Civil Twilight 6:25 AM CST 4:58 PM CST
Nautical Twilight 5:52 AM CST 5:31 PM CST
Astronomical Twilight 5:20 AM CST 6:03 PM CST
Moon 10:42 AM CST (12/7) 10:07 PM CST (12/7)
Length of Visible Light 10h 32m
Length of Day
9h 33m
Waxing Crescent, 29% of the Moon is Illuminated
Dec 7
Waxing Crescent
Dec 9
First Quarter
Dec 17
Full
Dec 25
Last Quarter
Jan 1
New

Hourly Weather History & Observations

Time (CST) Temp. Windchill Dew Point Humidity Pressure Visibility Wind Dir Wind Speed Gust Speed Precip Events Conditions
12:53 AM 16.0 °F 1.1 °F 8.1 °F 71% 30.56 in 10.0 mi NNW 15.0 mph - N/A   Mostly Cloudy
1:53 AM 14.0 °F 0.5 °F 6.1 °F 71% 30.57 in 10.0 mi NNW 11.5 mph - N/A   Clear
2:53 AM 10.9 °F -1.8 °F 3.9 °F 73% 30.59 in 10.0 mi North 9.2 mph - N/A   Clear
3:53 AM 10.0 °F -1.9 °F 3.9 °F 76% 30.60 in 10.0 mi NNW 8.1 mph - N/A   Clear
4:53 AM 8.1 °F -4.3 °F 3.0 °F 80% 30.62 in 9.0 mi NNW 8.1 mph - N/A   Clear
5:53 AM 8.1 °F -6.2 °F 1.9 °F 76% 30.64 in 9.0 mi NNW 10.4 mph - N/A   Clear
6:53 AM 3.9 °F -5.3 °F -0.9 °F 80% 30.66 in 8.0 mi North 4.6 mph - N/A   Clear
7:53 AM 5.0 °F -5.6 °F 1.0 °F 84% 30.68 in 7.0 mi North 5.8 mph - N/A   Clear
8:53 AM 10.9 °F -2.6 °F 3.9 °F 73% 30.69 in 8.0 mi North 10.4 mph - N/A   Clear
9:53 AM 15.1 °F 2.5 °F 6.1 °F 68% 30.70 in 8.0 mi North 10.4 mph - N/A   Clear
10:53 AM 17.1 °F 5.0 °F 8.1 °F 68% 30.70 in 8.0 mi North 10.4 mph - N/A   Clear
11:53 AM 19.0 °F 9.0 °F 9.0 °F 65% 30.67 in 8.0 mi North 8.1 mph - N/A   Clear
12:53 PM 19.9 °F 9.3 °F 9.0 °F 62% 30.66 in 8.0 mi North 9.2 mph - N/A   Clear
2:53 PM 21.0 °F 12.4 °F 9.0 °F 60% 30.63 in 8.0 mi North 6.9 mph - N/A   Clear
3:53 PM 18.0 °F 9.8 °F 8.1 °F 65% 30.63 in 9.0 mi North 5.8 mph - N/A   Clear
4:53 PM 17.1 °F 8.7 °F 10.0 °F 74% 30.63 in 9.0 mi NNW 5.8 mph - N/A   Clear
5:53 PM 15.1 °F 3.3 °F 8.1 °F 74% 30.63 in 9.0 mi North 9.2 mph - N/A   Clear
6:53 PM 15.1 °F 3.3 °F 5.0 °F 64% 30.63 in 10.0 mi NNE 9.2 mph - N/A   Clear
7:53 PM 18.0 °F 6.1 °F 7.0 °F 62% 30.59 in 10.0 mi NE 10.4 mph - N/A   Clear
8:53 PM 17.1 °F 3.6 °F 8.1 °F 68% 30.53 in 10.0 mi ENE 12.7 mph - N/A   Clear
9:53 PM 19.0 °F 10.0 °F 10.0 °F 68% 30.55 in 9.0 mi ENE 6.9 mph - N/A   Clear
10:53 PM 19.0 °F 8.2 °F 10.9 °F 71% 30.54 in 9.0 mi NE 9.2 mph - N/A   Clear
11:53 PM 19.9 °F 11.1 °F 12.0 °F 71% 30.53 in 9.0 mi NE 6.9 mph - N/A   Scattered Clouds